User: anonymous   Login
Location: Unspecified
(0.0000°N, 0.0000°E)
Time: 04:45:47
(UTC+00:00)
Language:

ITOS 1 - Orbit

View from above orbital plane
View from above orbital plane
View from above satellite
View from above satellite

Ground track
Ground track

The orbit data is extracted from the following two-line orbital elements,

1  4320U 70008A   18020.25202351 -.00000036 +00000-0 +56220-4 0  9994
2  4320 101.8025 090.4781 0029023 137.6180 267.2065 12.52047440389646
Epoch (UTC): 20 January 2018 06:02:54
Eccentricity: 0.0029023
inclination: 101.8025°
perigee height: 1433 km
apogee height: 1478 km
right ascension of ascending node: 90.4781°
argument of perigee: 137.6180°
revolutions per day: 12.52047440
mean anomaly at epoch: 267.2065°
orbit number at epoch: 38964

The dashed part of the orbit path shows where the satellite is in the earth's shadow,  

DLR